Location: Salillas
(41.9950°N, 0.2228°W)
Time: 21:07:31
(UTC+00:00)

Resurs 01 Rocket - Pass Details

Date: 29 March 2020
Orbit: 635 x 644 km, 98.0° (Epoch: 31 May)

Event Time Altitude Azimuth Distance (km) Brightness Sun altitude
Exits shadow 21:30:37 23° 271° (W) 1,352 3.7 -32.3°
Drops below altitude 10° 21:33:54 10° 319° (NW) 2,028 5.0 -32.7°
Sets 21:36:30 0° 334° (NNW) 2,942 6.0 -33.1°
